Flag for Canada Weather past 2 weeks in Glace Bay, Nova Scotia, Canada

Now
54 °F

Passing clouds.


Feels Like: 48 °F
Forecast: 42 / 50 °F
Wind: 22 mph from West

Location: Sydney

Current Time: May 23, 2015 at 12:58:24 PM

Latest Report: May 23, 2015 at 12:00 PM


Visibility: 15 mi

Pressure: 29.86 "Hg

Humidity: 44%

Dew point: 32 °F

Location of Glace BayLocation

Historic Weather in Glace Bay — Graph

°F

Glace Bay temperature yesterday

Maximum temperature yesterday: 54 °F (at 10:00 AM)
Minimum temperature yesterday: 41 °F (at 8:00 PM)
Average temperature yesterday: 46 °F

Past Weeks' High & Low Weather Summary

 TemperatureHumidityPressure
High70 °F (May 15, 2:00 PM)100% (May 10, 4:00 AM)30.48 "Hg (May 10, 4:00 AM)
Low30 °F (May 9, 5:00 AM)21% (May 15, 4:00 PM)29.41 "Hg (May 13, 6:52 AM)
Average47 °F71%30.02 "Hg
* Reported May 8 11:00 AM — May 23 11:00 AM, Glace Bay, Weather by CustomWeather, © 2015

Note: Actual official high and low records may vary slightly from our data, if they occured in-between our weather recording intervals... More about our weather records

Advertising

Glace Bay weather history for previous 24 hours

 ConditionsComfort  
Time TempWeatherWind HumidityBarometerVisibility
11:00 AM
Sat, May 23
52 °FScattered clouds.20 mph58%29.86 "Hg15 mi
10:00 AM50 °FScattered clouds.21 mph71%29.86 "Hg15 mi
9:00 AM48 °FPartly sunny.20 mph82%29.85 "Hg15 mi
8:00 AM46 °FFog.14 mph93%29.84 "Hg6 mi
7:00 AM45 °FFog.9 mph93%29.82 "Hg4 mi
6:00 AM43 °FFog.7 mph93%29.81 "Hg6 mi
5:00 AM41 °FFog.12 mph93%29.80 "Hg6 mi
4:00 AM39 °FFog.5 mph100%29.79 "Hg6 mi
3:00 AM39 °FFog.7 mph100%29.78 "Hg5 mi
2:00 AM39 °FFog.12 mph100%29.75 "Hg5 mi
1:00 AM39 °FFog.16 mph100%29.73 "Hg5 mi
12:00 AM41 °FLight rain. Fog.15 mph93%29.73 "Hg3 mi
11:00 PM
Fri, May 22
41 °FLight rain. Fog.12 mph93%29.72 "Hg3 mi
10:00 PM41 °FLight rain. Fog.18 mph93%29.70 "Hg3 mi
9:00 PM41 °FLight rain. Fog.15 mph93%29.79 "Hg4 mi
8:00 PM41 °FLight rain. Fog.10 mph93%29.83 "Hg3 mi
7:00 PM43 °FLight rain. Fog.8 mph93%29.86 "Hg4 mi
6:00 PM43 °FLight rain. Fog.10 mph93%29.86 "Hg4 mi
5:00 PM43 °FLight rain. Fog.7 mph93%29.90 "Hg4 mi
4:00 PM45 °FLight rain. Overcast.8 mph93%29.93 "Hg10 mi
3:00 PM46 °FLight rain. More clouds than sun.12 mph82%29.99 "Hg10 mi
2:00 PM48 °FLight rain. Mostly cloudy.12 mph87%30.00 "Hg10 mi
1:00 PM48 °FLight rain. Mostly cloudy.12 mph87%30.02 "Hg10 mi
12:00 PM50 °FLight rain. Mostly cloudy.13 mph67%30.02 "Hg10 mi
Weather by CustomWeather, © 2015

See weather overviewHow to use our weather pages